Location: Aalen
(48.8330°N, 10.1000°E)
Time: 15:19:17
(UTC+02:00)

O/OREOS (USA 219) - Pass Details

Date: 06 April 2023
Orbit: 621 x 646 km, 72.0° (Epoch: 22 May)

Event Time Altitude Azimuth Distance (km) Brightness Sun altitude
Exits shadow 06:03:38 10° 245° (WSW) 2,055 ? -7.9°
Reaches altitude 10° 06:03:42 10° 245° (WSW) 2,031 ? -7.9°
Maximum altitude 06:07:45 30° 307° (NW) 1,139 ? -7.2°
Drops below altitude 10° 06:11:47 10° 10° (N) 2,029 ? -6.6°
Sets 06:14:18 0° 21° (NNE) 2,936 ? -6.2°
